TimeMDT,TemperatureF,Dew PointF,Humidity,Sea Level PressureIn,VisibilityMPH,Wind Direction,Wind SpeedMPH,Gust SpeedMPH,PrecipitationIn,Events,Conditions,WindDirDegrees,DateUTC
12:17 AM,42.8,26.6,53,29.73,10.0,SW,6.9,-,N/A,,Clear,230,2013-03-21 06:17:00
12:37 AM,42.8,26.6,53,29.73,10.0,SW,8.1,-,N/A,,Clear,220,2013-03-21 06:37:00
12:57 AM,42.8,26.6,53,29.73,10.0,SSW,6.9,-,N/A,,Clear,210,2013-03-21 06:57:00
1:16 AM,37.4,28.4,70,29.72,10.0,South,4.6,-,N/A,,Clear,190,2013-03-21 07:16:00
1:37 AM,35.6,28.4,75,29.72,10.0,SSW,6.9,-,N/A,,Clear,210,2013-03-21 07:37:00
1:57 AM,42.8,26.6,53,29.72,10.0,SSW,6.9,-,N/A,,Clear,210,2013-03-21 07:57:00
2:17 AM,42.8,26.6,53,29.72,10.0,SSW,10.4,-,N/A,,Clear,210,2013-03-21 08:17:00
2:37 AM,42.8,26.6,53,29.70,10.0,South,4.6,-,N/A,,Clear,190,2013-03-21 08:37:00
2:57 AM,39.2,26.6,61,29.70,10.0,SW,8.1,-,N/A,,Clear,220,2013-03-21 08:57:00
3:17 AM,42.8,26.6,53,29.69,10.0,SW,5.8,-,N/A,,Clear,230,2013-03-21 09:17:00
3:37 AM,42.8,26.6,53,29.69,10.0,SW,9.2,-,N/A,,Clear,230,2013-03-21 09:37:00
3:57 AM,42.8,26.6,53,29.68,10.0,SSW,8.1,-,N/A,,Clear,210,2013-03-21 09:57:00
4:17 AM,41.0,26.6,57,29.66,10.0,South,4.6,-,N/A,,Clear,180,2013-03-21 10:17:00
4:37 AM,33.8,26.6,75,29.66,10.0,SSW,9.2,-,N/A,,Clear,210,2013-03-21 10:37:00
4:57 AM,42.8,26.6,53,29.65,10.0,West,4.6,-,N/A,,Clear,260,2013-03-21 10:57:00
5:17 AM,42.8,26.6,53,29.65,10.0,SW,6.9,-,N/A,,Clear,230,2013-03-21 11:17:00
5:37 AM,42.8,26.6,53,29.64,10.0,SSW,4.6,-,N/A,,Clear,210,2013-03-21 11:37:00
5:57 AM,37.4,28.4,70,29.64,10.0,SSE,8.1,-,N/A,,Clear,160,2013-03-21 11:57:00
6:17 AM,33.8,28.4,81,29.63,10.0,South,5.8,-,N/A,,Clear,170,2013-03-21 12:17:00
6:57 AM,37.4,28.4,70,29.63,10.0,South,10.4,-,N/A,,Clear,190,2013-03-21 12:57:00
7:50 AM,41.0,19.4,42,29.63,50.0,South,6.9,-,N/A,,Mostly Cloudy,170,2013-03-21 13:50:00
8:58 AM,44.6,28.4,53,29.62,50.0,Calm,Calm,-,N/A,,Overcast,0,2013-03-21 14:58:00
9:49 AM,48.2,28.4,46,29.62,50.0,SW,4.6,-,N/A,,Mostly Cloudy,230,2013-03-21 15:49:00
10:52 AM,51.8,32.0,47,29.57,50.0,SSE,13.8,-,N/A,,Mostly Cloudy,150,2013-03-21 16:52:00
11:47 AM,55.4,32.0,41,29.55,50.0,South,12.7,-,N/A,,Mostly Cloudy,170,2013-03-21 17:47:00
12:57 PM,59.0,28.4,31,29.53,40.0,South,12.7,-,N/A,,Mostly Cloudy,170,2013-03-21 18:57:00
1:50 PM,60.8,24.8,25,29.51,40.0,West,8.1,-,N/A,,Mostly Cloudy,260,2013-03-21 19:50:00
2:55 PM,50.0,33.8,54,29.57,40.0,NW,34.5,47.2,N/A,,Overcast,320,2013-03-21 20:55:00
3:50 PM,48.2,35.6,62,29.60,40.0,NNW,27.6,35.7,N/A,,Mostly Cloudy,330,2013-03-21 21:50:00
9:18 PM,33.8,19.4,56,29.76,10.0,North,16.1,-,N/A,,Clear,350,2013-03-22 03:18:00
9:38 PM,33.8,19.4,56,29.79,10.0,NE,8.1,-,N/A,,Clear,40,2013-03-22 03:38:00
9:57 PM,33.8,23.0,65,29.80,10.0,East,6.9,-,N/A,,Clear,100,2013-03-22 03:57:00
10:17 PM,35.6,21.2,56,29.81,10.0,East,6.9,-,N/A,,Clear,90,2013-03-22 04:17:00
10:37 PM,32.0,26.6,80,29.81,10.0,SE,8.1,-,N/A,,Clear,130,2013-03-22 04:37:00
10:57 PM,33.8,26.6,75,29.83,10.0,SE,3.5,-,N/A,,Clear,140,2013-03-22 04:57:00
11:17 PM,32.0,26.6,80,29.83,10.0,SE,9.2,-,N/A,,Clear,140,2013-03-22 05:17:00
11:37 PM,32.0,26.6,80,29.83,10.0,SE,9.2,-,N/A,,Clear,130,2013-03-22 05:37:00
11:57 PM,30.2,26.6,86,29.84,10.0,SSE,6.9,-,N/A,,Clear,150,2013-03-22 05:57:00